User: anonymous   Login
Location: 相模原市立博物館
(35.5593°N, 139.3931°E)
Time: 15:00:25
(UTC+09:00)
Language:

Oscar 19 - Orbit

View from above orbital plane
View from above orbital plane
View from above satellite
View from above satellite

Ground track
Ground track

The orbit data is extracted from the following two-line orbital elements,

1 20442U 90005G   22024.47814276  .00000041  00000-0  31735-4 0  9993
2 20442  98.7742 347.3056 0010878 228.4156 131.6096 14.33017733672486
Epoch (UTC): 24 January 2022 11:28:31
Eccentricity: 0.0010878
inclination: 98.7742°
perigee height: 774 km
apogee height: 789 km
right ascension of ascending node: 347.3056°
argument of perigee: 228.4156°
revolutions per day: 14.33017733
mean anomaly at epoch: 131.6096°
orbit number at epoch: 67248

The dashed part of the orbit path shows where the satellite is in the earth's shadow,  

DLR